Location: Ferris
(32.5340°N, 96.6656°W)
Time: 11:17:46
(UTC+00:00)

Cosmos 2219 - Pass Details

Date: 11 February 2026
Orbit: 832 x 859 km, 71.1° (Epoch: 8 March)

Event Time Altitude Azimuth Distance (km) Brightness Sun altitude
Rises 12:16:59 0° 347° (NNW) 3,428 6.1 -12.4°
Reaches altitude 10° 12:19:36 10° 354° (N) 2,485 5.5 -11.8°
Maximum altitude 12:25:00 43° 65° (ENE) 1,181 4.5 -10.7°
Drops below altitude 10° 12:30:20 10° 136° (SE) 2,456 6.5 -9.6°
Sets 12:32:53 0° 143° (SE) 3,383 7.1 -9.1°
